TimeAKDT,TemperatureF,Dew PointF,Humidity,Sea Level PressureIn,VisibilityMPH,Wind Direction,Wind SpeedMPH,Gust SpeedMPH,PrecipitationIn,Events,Conditions,WindDirDegrees,DateUTC
12:21 AM,37.4,35.6,93,29.68,5.0,WNW,5.8,-,0.04,Rain,Rain,290,2011-10-18 08:21:00
12:27 AM,37.4,35.6,93,29.68,5.0,WNW,5.8,-,0.05,Rain,Rain,290,2011-10-18 08:27:00
12:54 AM,37.0,36.0,96,29.66,5.0,WNW,3.5,-,0.09,Rain,Rain,290,2011-10-18 08:54:00
1:12 AM,35.6,35.6,100,29.64,5.0,WNW,5.8,-,0.03,Rain,Rain,290,2011-10-18 09:12:00
1:41 AM,35.6,35.6,100,29.63,5.0,West,4.6,-,0.09,Rain,Rain,280,2011-10-18 09:41:00
1:54 AM,36.0,35.1,97,29.63,5.0,WNW,6.9,-,0.11,Rain,Rain,300,2011-10-18 09:54:00
2:54 AM,36.0,35.1,97,29.62,7.0,WNW,5.8,-,0.12,Rain,Light Rain,290,2011-10-18 10:54:00
3:23 AM,35.6,35.6,100,29.60,7.0,Calm,Calm,-,0.03,Rain,Light Rain,0,2011-10-18 11:23:00
3:49 AM,37.4,35.6,93,29.59,9.0,Calm,Calm,-,0.05,Rain,Light Rain,0,2011-10-18 11:49:00
3:54 AM,37.0,37.0,100,29.60,10.0,Calm,Calm,-,0.05,Rain,Light Rain,0,2011-10-18 11:54:00
4:54 AM,39.9,39.0,97,29.58,5.0,Variable,4.6,-,0.08,Rain,Light Rain,0,2011-10-18 12:54:00
5:04 AM,39.2,39.2,100,29.56,5.0,Variable,4.6,-,0.00,Rain,Light Rain,0,2011-10-18 13:04:00
5:13 AM,39.2,39.2,100,29.56,4.0,SE,6.9,-,0.01,Rain,Light Rain,140,2011-10-18 13:13:00
5:54 AM,41.0,39.9,96,29.57,4.0,SE,6.9,-,0.08,Rain,Rain,130,2011-10-18 13:54:00
6:29 AM,37.4,35.6,93,29.58,4.0,WNW,10.4,21.9,0.11,Rain,Light Rain,300,2011-10-18 14:29:00
6:54 AM,37.9,36.0,93,29.57,9.0,Calm,Calm,-,0.13,Rain,Light Rain,0,2011-10-18 14:54:00
7:49 AM,44.6,42.8,93,29.56,10.0,NE,8.1,20.7,0.00,Rain,Light Rain,50,2011-10-18 15:49:00
7:54 AM,44.1,42.1,93,29.56,10.0,Variable,5.8,-,0.00,Rain,Light Rain,0,2011-10-18 15:54:00
8:39 AM,46.4,42.8,87,29.56,10.0,ESE,10.4,21.9,0.04,Rain,Light Rain,110,2011-10-18 16:39:00
8:54 AM,46.0,43.0,89,29.60,6.0,ESE,15.0,26.5,0.05,Rain,Rain,110,2011-10-18 16:54:00
9:54 AM,46.0,43.0,89,29.59,6.0,ESE,15.0,35.7,0.14,Rain,Light Rain,110,2011-10-18 17:54:00
10:46 AM,46.4,44.6,93,29.58,6.0,East,15.0,33.4,0.06,Rain,Light Rain,100,2011-10-18 18:46:00
10:54 AM,46.0,43.0,89,29.59,6.0,ESE,19.6,40.3,0.06,Rain,Light Rain,110,2011-10-18 18:54:00
11:16 AM,46.4,44.6,93,29.59,8.0,East,18.4,32.2,0.01,Rain,Light Rain,100,2011-10-18 19:16:00
11:54 AM,46.9,43.0,86,29.63,10.0,East,16.1,34.5,0.01,Rain,Light Rain,90,2011-10-18 19:54:00
12:09 PM,46.4,42.8,87,29.63,10.0,East,11.5,26.5,0.00,Rain,Light Rain,90,2011-10-18 20:09:00
12:24 PM,48.2,41.0,76,29.64,10.0,East,13.8,38.0,0.00,Rain,Light Rain,90,2011-10-18 20:24:00
12:54 PM,46.9,41.0,80,29.68,10.0,ESE,15.0,23.0,0.00,Rain,Light Rain,120,2011-10-18 20:54:00
1:54 PM,46.9,43.0,86,29.70,10.0,ESE,18.4,32.2,0.00,Rain,Light Rain,120,2011-10-18 21:54:00
2:29 PM,46.4,42.8,87,29.71,10.0,ESE,16.1,33.4,0.00,Rain,Light Rain,110,2011-10-18 22:29:00
2:54 PM,46.9,43.0,86,29.72,10.0,ESE,18.4,32.2,0.00,Rain,Light Rain,120,2011-10-18 22:54:00
3:30 PM,46.4,42.8,87,29.70,10.0,ESE,17.3,25.3,0.00,Rain,Light Rain,110,2011-10-18 23:30:00
3:54 PM,48.0,43.0,83,29.72,10.0,East,16.1,27.6,0.00,,Mostly Cloudy,100,2011-10-18 23:54:00
4:03 PM,48.2,42.8,82,29.71,10.0,ESE,13.8,23.0,N/A,,Overcast,110,2011-10-19 00:03:00
4:54 PM,46.9,43.0,86,29.73,10.0,ESE,13.8,23.0,0.00,Rain,Light Rain,110,2011-10-19 00:54:00
5:21 PM,46.4,42.8,87,29.73,10.0,East,9.2,24.2,0.00,Rain,Light Rain,100,2011-10-19 01:21:00
5:54 PM,46.9,43.0,86,29.74,10.0,ESE,9.2,20.7,0.00,Rain,Light Rain,110,2011-10-19 01:54:00
6:54 PM,46.0,43.0,89,29.74,10.0,East,10.4,18.4,0.00,,Overcast,100,2011-10-19 02:54:00
7:54 PM,46.0,42.1,86,29.73,10.0,East,9.2,-,N/A,,Overcast,90,2011-10-19 03:54:00
8:54 PM,45.0,42.1,90,29.73,10.0,ENE,8.1,-,N/A,,Partly Cloudy,70,2011-10-19 04:54:00
9:46 PM,46.4,42.8,87,29.74,10.0,Variable,6.9,-,N/A,,Overcast,0,2011-10-19 05:46:00
9:54 PM,46.0,42.1,86,29.75,10.0,ENE,8.1,-,N/A,,Overcast,70,2011-10-19 05:54:00
10:05 PM,46.4,42.8,87,29.74,10.0,ENE,11.5,-,N/A,,Overcast,70,2011-10-19 06:05:00
10:34 PM,46.4,42.8,87,29.74,10.0,ENE,6.9,17.3,N/A,,Mostly Cloudy,60,2011-10-19 06:34:00
10:54 PM,45.0,41.0,86,29.75,10.0,ENE,5.8,-,N/A,,Mostly Cloudy,70,2011-10-19 06:54:00
11:54 PM,45.0,39.9,82,29.76,10.0,East,9.2,-,N/A,,Clear,80,2011-10-19 07:54:00